User: anonymous   Login
Location: Albany
(35.0000°S, 118.0000°E)
Time: 16:00:22
(UTC-05:00)
Language:

Cosmos 1758 Rocket - Orbit

View from above orbital plane
View from above orbital plane
View from above satellite
View from above satellite

Ground track
Ground track

The orbit data is extracted from the following two-line orbital elements,

1 16792U 86046B   14327.20117013  .00000380  00000-0  43880-4 0  6334
2 16792 082.4828 003.8655 0025834 135.9456 288.5634 14.82710060536011
Epoch (UTC): 23 November 2014 04:49:41
Eccentricity: 0.0025834
inclination: 82.4828°
perigee height: 603 km
apogee height: 639 km
right ascension of ascending node: 3.8655°
argument of perigee: 135.9456°
revolutions per day: 14.82710060
mean anomaly at epoch: 288.5634°
orbit number at epoch: 53601

The dashed part of the orbit path shows where the satellite is in the earth's shadow,  

DLR